RH
81 76 79 95 95 94 93 92 92 92 92 92 92 92 92 90 90 90 88 86 83 81 80 80 80 82 84 84 85 86 52 45
80 78 73 74 75 94 93 93 93 93 92 93 94 93 92 91 90 89 87 84 83 82 82 80 79 80 81 84 87 88 50 52
77 74 73 74 72 77 91 92 92 93 89 93 92 64 68 72 77 88 86 83 81 78 73 69 70 76 79 83 85 50 52 50
74 77 76 77 68 72 73 69 65 68 70 73 69 73 68 65 75 90 88 85 82 78 74 70 63 40 40 66 50 57 54 50
79 80 80 80 71 70 67 67 69 70 75 75 75 74 76 68 67 65 66 78 61 65 61 51 53 49 43 47 51 58 49 48
76 78 82 84 73 72 68 69 71 68 70 80 80 82 82 74 66 64 68 60 67 66 58 62 62 59 55 53 53 53 50 48
74 80 83 84 86 72 72 74 72 66 70 76 79 79 79 70 68 66 64 63 65 68 64 60 60 59 58 57 56 60 60 50
71 78 85 84 85 79 75 74 71 71 69 69 79 72 77 69 70 67 67 65 61 65 63 59 57 59 62 61 61 58 58 60
68 73 78 81 79 76 74 72 72 70 68 75 76 76 78 74 73 75 70 74 71 70 71 67 61 59 63 62 60 59 56 60
64 63 70 78 76 73 70 70 72 69 68 69 77 76 75 78 77 77 76 72 70 70 69 69 66 62 64 63 61 62 66 68
64 69 69 73 75 71 74 75 73 68 68 67 72 74 76 76 76 76 76 73 72 71 72 74 69 67 65 64 65 65 67 62
63 67 71 74 71 74 69 70 71 68 68 67 71 70 74 75 70 74 74 71 70 72 77 73 72 69 69 69 72 74 81 83
64 70 74 74 72 73 71 73 70 70 68 70 72 72 74 76 70 72 76 74 74 78 76 82 78 77 85 82 85 87 89 94
63 66 71 73 66 68 65 68 67 67 66 71 73 75 75 74 75 73 78 84 84 83 85 81 78 76 87 90 97 83 91 94
62 64 67 72 68 67 73 73 73 75 71 70 71 79 86 84 83 83 84 90 90 90 90 90 88 88 90 93 98 95 93 95
55 59 65 70 72 71 77 70 72 68 68 70 72 83 88 89 90 89 90 91 94 92 93 94 94 96 99 95 92 92 98 98
52 58 64 69 74 72 76 76 70 67 75 81 81 86 87 89 91 89 91 94 95 94 94 97 96 96 98 98 98 99 96 96
58 58 64 72 78 79 80 83 81 84 85 87 87 86 89 90 91 93 92 94 96 95 94 96 96 97 97 94 93 96 96 98
74 69 73 79 81 81 82 84 84 84 81 82 81 82 87 89 90 91 90 91 93 93 95 97 97 98 97 97 93 94 96 91
79 78 73 78 82 82 82 84 83 80 79 77 79 78 76 78 84 86 84 86 90 94 97 98 98 98 97 96 95 93 92 85
Wind_Speed
12 14 14 12 13 13 14 14 14 13 12 12 11 11 10 10 9 8 7 7 8 8 7 6 6 5 5 4 3 4 4 4
13 13 14 14 13 11 12 12 13 13 13 12 11 11 10 9 10 10 9 9 8 7 7 6 3 3 4 3 3 3 4 5
12 13 14 13 13 13 12 13 12 11 11 11 10 8 10 11 8 9 9 9 8 7 7 5 4 2 1 1 3 2 3 3
13 14 14 13 10 12 13 12 11 11 11 11 8 8 8 8 8 9 9 9 8 7 6 5 5 3 3 4 3 3 3 3
15 14 14 14 12 10 8 7 8 9 12 11 9 7 7 7 5 6 7 8 5 7 6 5 5 4 3 3 3 4 3 3
17 16 14 14 10 10 10 9 8 8 10 12 9 6 8 7 6 7 6 5 6 5 4 5 6 6 5 5 5 4 3 2
18 16 15 13 13 11 10 10 10 10 10 11 9 9 9 8 7 7 6 6 6 6 5 5 6 6 6 7 7 6 5 3
19 19 16 13 13 13 10 9 10 10 9 10 13 10 9 9 8 8 8 7 7 6 6 5 6 6 7 8 8 7 5 4
20 19 18 17 16 14 11 9 9 10 9 12 14 12 11 11 9 8 8 7 8 6 7 6 6 7 9 8 7 7 5 5
17 15 17 17 15 12 10 9 9 10 10 10 14 14 14 11 9 9 8 8 7 7 8 7 7 8 8 8 8 7 8 7
19 18 19 18 16 12 12 12 11 10 10 10 13 14 14 12 10 9 10 8 8 8 8 9 9 9 9 9 8 8 7 4
17 16 18 17 12 11 10 10 11 11 11 12 15 13 15 13 11 11 10 9 9 9 11 10 10 10 9 9 9 6 4 4
22 18 18 14 13 12 12 13 12 11 12 16 16 14 15 15 12 12 12 12 13 12 11 13 11 10 7 8 7 7 6 2
20 22 20 18 13 12 10 11 11 11 11 14 16 16 16 15 15 13 14 10 13 13 13 11 11 10 8 5 3 1 3 1
20 20 20 18 17 10 9 6 8 10 13 12 14 14 13 14 14 13 13 11 11 13 13 16 11 8 13 5 2 3 3 1
15 16 17 16 17 14 18 14 14 12 11 10 11 13 13 13 14 14 14 10 12 12 10 12 11 9 2 2 2 3 3 4
8 12 15 15 15 16 13 16 11 9 9 12 13 12 16 14 14 16 14 11 12 12 11 13 11 9 6 4 2 3 2 3
5 10 12 14 15 18 18 17 14 11 12 10 9 10 10 15 14 14 13 11 12 11 13 13 12 11 9 10 9 6 7 4
3 8 11 13 16 17 19 18 16 18 15 11 13 11 10 14 14 13 12 12 12 11 11 12 10 9 11 9 8 8 6 6
4 7 10 11 14 17 14 17 12 13 15 12 11 11 11 12 13 14 16 14 12 12 9 9 9 9 12 11 9 8 7 7
Wind_Direction
170 175 173 169 166 167 167 165 164 162 161 165 161 157 160 165 161 168 166 161 166 163 158 166 168 152 138 156 172 178 225 212
181 178 180 184 180 176 174 170 169 167 168 170 163 163 170 175 173 180 177 180 182 174 175 177 169 150 147 160 173 185 225 212
195 191 190 190 184 185 183 179 175 169 172 173 164 182 184 181 187 184 188 189 189 189 190 180 177 168 63 231 213 205 223 217
195 197 198 195 193 191 193 188 189 186 186 182 183 186 193 198 193 202 204 199 195 196 197 190 206 210 194 204 219 212 218 217
196 197 199 199 200 196 197 196 190 189 187 183 185 183 196 204 204 203 210 203 207 203 198 213 212 222 208 218 216 234 236 228
198 201 201 202 203 202 200 200 197 196 195 186 183 189 195 207 209 211 212 205 211 211 209 210 216 220 221 226 226 238 233 239
202 200 204 202 206 207 206 205 201 202 195 195 190 195 202 205 214 215 220 211 215 214 216 218 222 225 230 236 234 234 231 237
202 202 202 203 212 213 212 211 209 204 202 201 203 205 206 209 213 217 220 219 217 220 216 218 226 228 231 235 242 245 233 226
207 203 201 203 208 212 214 212 211 216 213 207 207 209 210 214 217 220 223 219 222 223 220 217 226 225 237 237 237 233 222 218
205 202 205 206 209 210 215 216 215 219 218 216 214 214 216 216 221 225 222 222 226 224 228 225 231 231 236 235 228 229 229 225
208 204 204 207 208 208 214 219 223 223 222 223 221 220 218 223 226 228 223 225 225 229 231 233 234 235 239 240 232 229 232 224
212 207 206 200 202 205 212 222 224 224 224 225 222 222 220 221 231 232 226 229 230 226 231 229 237 242 242 241 237 226 216 221
212 206 204 192 195 201 212 218 218 223 225 225 225 224 222 222 229 229 226 229 229 222 227 235 239 238 247 245 241 214 207 103
216 213 203 202 201 205 213 212 224 226 224 223 219 220 222 221 223 228 224 224 230 225 220 227 238 225 221 245 235 114 49 38
218 214 210 204 207 203 209 217 226 215 220 223 221 216 214 221 221 222 225 216 221 218 218 220 231 220 221 217 141 170 180 133
224 222 218 213 204 205 208 214 218 222 223 221 219 208 207 214 220 219 224 218 222 222 219 224 225 226 153 177 108 170 200 176
216 216 216 211 206 214 215 224 232 233 222 219 215 206 209 213 214 224 224 220 225 224 221 218 215 218 178 149 208 187 156 150
198 206 209 202 203 212 219 227 229 229 222 221 218 217 218 222 219 221 225 226 225 227 230 225 223 219 198 188 177 173 179 200
231 210 209 204 207 212 218 226 226 230 232 226 223 222 214 225 220 220 227 230 231 233 228 227 214 211 198 201 191 194 166 196
285 266 256 223 222 227 222 226 228 232 231 227 233 230 229 222 216 218 226 228 225 221 223 218 194 194 184 185 185 188 190 185